sat.trackr.live / text

‹ back to catalog

STARLINK-34798

NORAD 65063 · 2025-165H

PAYLOAD ACTIVE UNKNOWN

§ Identity

Operator
Country
US
Launch date
2025-07-31
Launch site
AFWTR
Launch vehicle
Mass (kg)
RCS (m²)

Purposes: comms

External: N2YO · Heavens-Above · Gunter

§ Orbital elements

Epoch: 2026-05-25T04:20:25.135008Z

Period
95.64 min
Inclination
97.4474°
Eccentricity
0.0002249
Mean motion
15.05651827 rev/d
Perigee alt
547.9 km
Apogee alt
551.1 km
Semi-major
6,927.6 km
B*
3.4891e-4
RAAN
222.3121°
Arg perigee
142.0409°
Mean anomaly
218.0977°
Rev number
4,630

§ Raw data

STARLINK-347981 65063U 25165H   26145.18084647  .00004980  00000+0  34891-3 0  99932 65063  97.4474 222.3121 0002249 142.0409 218.0977 15.05651827 46304

JSON: /api/v1/satellites/65063 · /tle

For live sub-satellite position, see the globe view (requires WebGL).

§ Visibility from observer

Set your observer location to see the next 7 days of passes ≥ 10°. The values pass through the URL so the page stays shareable.

No JS? Fill the form by hand. The geolocation button needs JavaScript.